SUR4606 SBPA-SABE

Flight info

Callsign SUR4606
Flight time 1h 28m
Altitude 38000
Route ESNU3A TOKAK UZ53 UMRUD UN741 PAPIX PAPI2Q
Aircraft B737/M-SDE3FGHIRWY/LB1

Departure

Time 2026-05-07 21:44
Airport Porto Alegre-Salgado Filho International Airport (SBPA)

Arrival

Time 2026-05-07 23:12
Airport Aeroparque Jorge Newbery (SABE)
Time Latitude Longitude Altitude Speed Heading
2026-05-07 21:17 -29.99079 -51.17770 23 ft 0 kts 24°
2026-05-07 21:32 -29.99089 -51.17776 22 ft 2 kts 24°
2026-05-07 21:32 -29.99103 -51.17783 22 ft 2 kts 24°
2026-05-07 21:32 -29.99116 -51.17790 22 ft 2 kts 24°
2026-05-07 21:33 -29.99130 -51.17797 22 ft 2 kts 24°
2026-05-07 21:33 -29.99143 -51.17806 22 ft 2 kts 49°
2026-05-07 21:33 -29.99151 -51.17821 22 ft 2 kts 72°
2026-05-07 21:33 -29.99153 -51.17838 22 ft 2 kts 97°
2026-05-07 21:34 -29.99151 -51.17845 22 ft 1 kts 108°
2026-05-07 21:34 -29.99150 -51.17849 22 ft 0 kts 105°
2026-05-07 21:36 -29.99151 -51.17845 22 ft 2 kts 105°
2026-05-07 21:36 -29.99160 -51.17780 22 ft 13 kts 92°
2026-05-07 21:36 -29.99208 -51.17698 22 ft 13 kts 169°
2026-05-07 21:36 -29.99282 -51.17754 20 ft 14 kts 259°
2026-05-07 21:37 -29.99282 -51.17862 20 ft 13 kts 271°
2026-05-07 21:37 -29.99282 -51.17968 20 ft 12 kts 263°
2026-05-07 21:37 -29.99305 -51.18064 20 ft 12 kts 249°
2026-05-07 21:37 -29.99319 -51.18104 19 ft 0 kts 248°
2026-05-07 21:38 -29.99319 -51.18105 19 ft 0 kts 248°
2026-05-07 21:39 -29.99323 -51.18116 19 ft 2 kts 248°
2026-05-07 21:39 -29.99327 -51.18126 19 ft 0 kts 248°
2026-05-07 21:39 -29.99329 -51.18134 19 ft 0 kts 248°
2026-05-07 21:42 -29.99337 -51.18155 19 ft 10 kts 248°
2026-05-07 21:43 -29.99370 -51.18234 20 ft 9 kts 225°
2026-05-07 21:43 -29.99426 -51.18232 20 ft 9 kts 129°
2026-05-07 21:43 -29.99436 -51.18193 19 ft 1 kts 94°
2026-05-07 21:43 -29.99438 -51.18167 19 ft 9 kts 94°
2026-05-07 21:44 -29.99445 -51.17722 19 ft 106 kts 91°
2026-05-07 21:44 -29.99470 -51.16544 237 ft 173 kts 89°
2026-05-07 21:44 -29.99520 -51.15161 1235 ft 178 kts 85°
2026-05-07 21:44 -29.99580 -51.13717 2006 ft 191 kts 85°
2026-05-07 21:45 -29.99899 -51.12146 2681 ft 217 kts 105°
2026-05-07 21:45 -30.00787 -51.10622 3313 ft 246 kts 131°
2026-05-07 21:45 -30.02288 -51.09559 4061 ft 263 kts 162°
2026-05-07 21:45 -30.04129 -51.09304 4673 ft 279 kts 189°
2026-05-07 21:46 -30.06042 -51.09716 5410 ft 285 kts 201°
2026-05-07 21:46 -30.07960 -51.10276 5623 ft 291 kts 199°
2026-05-07 21:46 -30.09938 -51.10683 5657 ft 286 kts 192°
2026-05-07 21:46 -30.11956 -51.10820 5676 ft 290 kts 185°
2026-05-07 21:47 -30.13992 -51.10761 5676 ft 292 kts 181°
2026-05-07 21:47 -30.16033 -51.10617 5674 ft 293 kts 181°
2026-05-07 21:47 -30.18073 -51.10588 5707 ft 291 kts 191°
2026-05-07 21:47 -30.19939 -51.11231 5682 ft 273 kts 220°
2026-05-07 21:48 -30.21312 -51.12796 5928 ft 283 kts 245°
2026-05-07 21:48 -30.22339 -51.14662 7016 ft 281 kts 245°
2026-05-07 21:48 -30.23441 -51.16507 8098 ft 284 kts 242°
2026-05-07 21:48 -30.24604 -51.18375 9010 ft 291 kts 242°
2026-05-07 21:49 -30.25775 -51.20251 10082 ft 294 kts 242°
2026-05-07 21:49 -30.26994 -51.22237 10754 ft 308 kts 242°
2026-05-07 21:49 -30.28247 -51.24305 11437 ft 319 kts 243°
2026-05-07 21:49 -30.29526 -51.26408 12352 ft 324 kts 243°
2026-05-07 21:50 -30.30806 -51.28514 13226 ft 328 kts 243°
2026-05-07 21:50 -30.32120 -51.30677 14080 ft 332 kts 244°
2026-05-07 21:50 -30.33460 -51.32888 14896 ft 337 kts 244°
2026-05-07 21:50 -30.34803 -51.35108 15655 ft 342 kts 244°
2026-05-07 21:51 -30.36180 -51.37384 16386 ft 349 kts 244°
2026-05-07 21:51 -30.37559 -51.39666 17113 ft 354 kts 244°
2026-05-07 21:51 -30.38983 -51.42020 17953 ft 355 kts 244°
2026-05-07 21:51 -30.40394 -51.44350 18690 ft 359 kts 244°
2026-05-07 21:52 -30.41833 -51.46733 19387 ft 364 kts 244°
2026-05-07 21:52 -30.43273 -51.49116 20173 ft 365 kts 244°
2026-05-07 21:52 -30.44732 -51.51526 20945 ft 366 kts 244°
2026-05-07 21:52 -30.46202 -51.53968 21545 ft 371 kts 244°
2026-05-07 21:53 -30.47679 -51.56419 22295 ft 372 kts 244°
2026-05-07 21:53 -30.49158 -51.58870 22929 ft 375 kts 244°
2026-05-07 21:53 -30.50647 -51.61346 23561 ft 377 kts 244°
2026-05-07 21:53 -30.52144 -51.63837 24174 ft 380 kts 244°
2026-05-07 21:54 -30.53667 -51.66370 24841 ft 381 kts 245°
2026-05-07 21:54 -30.55169 -51.68869 25441 ft 384 kts 244°
2026-05-07 21:54 -30.56712 -51.71441 25919 ft 389 kts 245°
2026-05-07 21:54 -30.58238 -51.73982 26572 ft 389 kts 244°
2026-05-07 21:55 -30.59785 -51.76553 27188 ft 390 kts 245°
2026-05-07 21:55 -30.61332 -51.79134 27604 ft 395 kts 244°
2026-05-07 21:55 -30.62907 -51.81764 28182 ft 397 kts 245°
2026-05-07 21:55 -30.64452 -51.84444 28627 ft 397 kts 248°
2026-05-07 21:56 -30.65736 -51.87189 29211 ft 389 kts 255°
2026-05-07 21:56 -30.66614 -51.90154 29646 ft 381 kts 265°
2026-05-07 21:56 -30.67032 -51.93124 30306 ft 373 kts 271°
2026-05-07 21:56 -30.67230 -51.96142 30584 ft 377 kts 273°
2026-05-07 21:57 -30.67337 -51.99171 31095 ft 377 kts 273°
2026-05-07 21:57 -30.67422 -52.02204 31538 ft 379 kts 274°
2026-05-07 21:57 -30.67499 -52.05282 31842 ft 385 kts 273°
2026-05-07 21:57 -30.67580 -52.08387 32358 ft 385 kts 273°
2026-05-07 21:58 -30.67661 -52.11482 32733 ft 388 kts 272°
2026-05-07 21:58 -30.67747 -52.14626 33032 ft 393 kts 272°
2026-05-07 21:58 -30.67835 -52.17806 33420 ft 395 kts 272°
2026-05-07 21:58 -30.67926 -52.20964 33812 ft 397 kts 272°
2026-05-07 21:59 -30.68018 -52.24224 34064 ft 403 kts 271°
2026-05-07 21:59 -30.68110 -52.27448 34438 ft 406 kts 272°
2026-05-07 21:59 -30.68204 -52.30719 34875 ft 407 kts 271°
2026-05-07 21:59 -30.68299 -52.34003 35201 ft 410 kts 272°
2026-05-07 22:00 -30.68392 -52.37338 35411 ft 416 kts 271°
2026-05-07 22:00 -30.68486 -52.40677 36081 ft 411 kts 271°
2026-05-07 22:00 -30.68580 -52.43957 36736 ft 406 kts 271°
2026-05-07 22:00 -30.68670 -52.47248 37281 ft 403 kts 271°
2026-05-07 22:01 -30.68758 -52.50520 37603 ft 405 kts 271°
2026-05-07 22:01 -30.68844 -52.53795 37645 ft 410 kts 271°
2026-05-07 22:01 -30.69017 -52.60415 37642 ft 407 kts 271°
2026-05-07 22:02 -30.69187 -52.67034 37647 ft 408 kts 272°
2026-05-07 22:02 -30.69357 -52.73622 37656 ft 406 kts 271°
2026-05-07 22:03 -30.69842 -52.80177 37654 ft 412 kts 263°
2026-05-07 22:03 -30.71690 -52.86552 37648 ft 420 kts 252°
2026-05-07 22:04 -30.74211 -52.92681 37639 ft 423 kts 249°
2026-05-07 22:04 -30.76853 -52.98805 37636 ft 424 kts 249°
2026-05-07 22:05 -30.79474 -53.04969 37631 ft 425 kts 249°
2026-05-07 22:05 -30.82073 -53.11174 37630 ft 424 kts 249°
2026-05-07 22:06 -30.84655 -53.17387 37630 ft 422 kts 250°
2026-05-07 22:06 -30.87205 -53.23557 37627 ft 422 kts 250°
2026-05-07 22:07 -30.89751 -53.29736 37625 ft 424 kts 250°
2026-05-07 22:07 -30.92282 -53.35882 37631 ft 422 kts 250°
2026-05-07 22:08 -30.94824 -53.42071 37625 ft 422 kts 250°
2026-05-07 22:08 -30.97358 -53.48256 37636 ft 425 kts 250°
2026-05-07 22:09 -30.99877 -53.54410 37626 ft 424 kts 251°
2026-05-07 22:09 -31.02420 -53.60626 37636 ft 421 kts 251°
2026-05-07 22:10 -31.04937 -53.66787 37641 ft 421 kts 252°
2026-05-07 22:10 -31.07466 -53.73000 37636 ft 423 kts 252°
2026-05-07 22:11 -31.09979 -53.79178 37640 ft 422 kts 252°
2026-05-07 22:11 -31.12508 -53.85394 37646 ft 421 kts 252°
2026-05-07 22:12 -31.14995 -53.91525 37638 ft 420 kts 252°
2026-05-07 22:12 -31.17521 -53.97772 37631 ft 425 kts 252°
2026-05-07 22:13 -31.20032 -54.03987 37634 ft 424 kts 252°
2026-05-07 22:13 -31.22548 -54.10226 37631 ft 424 kts 253°
2026-05-07 22:14 -31.25042 -54.16423 37633 ft 422 kts 253°
2026-05-07 22:14 -31.27557 -54.22680 37631 ft 423 kts 253°
2026-05-07 22:15 -31.30062 -54.28928 37635 ft 423 kts 253°
2026-05-07 22:15 -31.32561 -54.35174 37630 ft 427 kts 253°
2026-05-07 22:16 -31.35079 -54.41466 37624 ft 426 kts 253°
2026-05-07 22:16 -31.37580 -54.47739 37623 ft 427 kts 253°
2026-05-07 22:17 -31.40096 -54.54051 37627 ft 425 kts 254°
2026-05-07 22:17 -31.42617 -54.60301 37618 ft 428 kts 252°
2026-05-07 22:18 -31.48060 -54.68920 37630 ft 455 kts 234°
2026-05-07 22:19 -31.52700 -54.73978 37625 ft 454 kts 231°
2026-05-07 22:19 -31.57418 -54.78886 37635 ft 461 kts 231°
2026-05-07 22:20 -31.62208 -54.83943 37626 ft 461 kts 232°
2026-05-07 22:20 -31.66946 -54.89004 37632 ft 458 kts 232°
2026-05-07 22:21 -31.71671 -54.94098 37631 ft 459 kts 232°
2026-05-07 22:21 -31.76375 -54.99202 37626 ft 461 kts 233°
2026-05-07 22:22 -31.81118 -55.04357 37623 ft 464 kts 232°
2026-05-07 22:22 -31.85887 -55.09552 37619 ft 468 kts 232°
2026-05-07 22:23 -31.90707 -55.14808 37617 ft 470 kts 232°
2026-05-07 22:23 -31.95501 -55.20040 37619 ft 469 kts 232°
2026-05-07 22:24 -32.00330 -55.25318 37609 ft 471 kts 232°
2026-05-07 22:24 -32.05143 -55.30591 37606 ft 478 kts 232°
2026-05-07 22:25 -32.10009 -55.35927 37607 ft 476 kts 232°
2026-05-07 22:25 -32.14830 -55.41215 37605 ft 474 kts 232°
2026-05-07 22:26 -32.19673 -55.46549 37610 ft 478 kts 232°
2026-05-07 22:26 -32.24532 -55.51907 37627 ft 476 kts 233°
2026-05-07 22:27 -32.29407 -55.57289 37628 ft 483 kts 233°
2026-05-07 22:27 -32.34283 -55.62674 37621 ft 476 kts 232°
2026-05-07 22:28 -32.39123 -55.68022 37622 ft 479 kts 233°
2026-05-07 22:28 -32.44017 -55.73460 37626 ft 486 kts 233°
2026-05-07 22:29 -32.48941 -55.78934 37626 ft 485 kts 233°
2026-05-07 22:29 -32.53875 -55.84413 37615 ft 483 kts 234°
2026-05-07 22:30 -32.58799 -55.89893 37614 ft 485 kts 233°
2026-05-07 22:30 -32.63725 -55.95396 37613 ft 488 kts 233°
2026-05-07 22:31 -32.68738 -56.01004 37619 ft 493 kts 234°
2026-05-07 22:31 -32.73731 -56.06589 37630 ft 495 kts 233°
2026-05-07 22:32 -32.78682 -56.12133 37633 ft 488 kts 234°
2026-05-07 22:32 -32.83643 -56.17701 37633 ft 493 kts 234°
2026-05-07 22:33 -32.88655 -56.23351 37633 ft 497 kts 234°
2026-05-07 22:33 -32.93672 -56.29006 37638 ft 495 kts 234°
2026-05-07 22:34 -32.98644 -56.34606 37643 ft 494 kts 234°
2026-05-07 22:34 -33.03651 -56.40268 37638 ft 494 kts 234°
2026-05-07 22:35 -33.08640 -56.45915 37638 ft 492 kts 234°
2026-05-07 22:35 -33.13602 -56.51548 37635 ft 498 kts 235°
2026-05-07 22:36 -33.18612 -56.57243 37629 ft 497 kts 234°
2026-05-07 22:36 -33.23605 -56.62922 37631 ft 496 kts 234°
2026-05-07 22:37 -33.28599 -56.68611 37638 ft 497 kts 235°
2026-05-07 22:37 -33.33604 -56.74329 37630 ft 493 kts 235°
2026-05-07 22:38 -33.38592 -56.80023 37637 ft 495 kts 235°
2026-05-07 22:38 -33.43603 -56.85773 37631 ft 499 kts 235°
2026-05-07 22:39 -33.48600 -56.91497 37636 ft 496 kts 235°
2026-05-07 22:39 -33.53601 -56.97238 37636 ft 500 kts 235°
2026-05-07 22:40 -33.58602 -57.03007 37636 ft 498 kts 236°
2026-05-07 22:40 -33.63553 -57.08707 37640 ft 496 kts 236°
2026-05-07 22:41 -33.68516 -57.14448 37635 ft 494 kts 236°
2026-05-07 22:41 -33.73476 -57.20186 37640 ft 497 kts 236°
2026-05-07 22:42 -33.78429 -57.25930 37640 ft 495 kts 236°
2026-05-07 22:42 -33.83378 -57.31668 37577 ft 494 kts 235°
2026-05-07 22:42 -33.85848 -57.34535 37086 ft 489 kts 235°
2026-05-07 22:43 -33.88274 -57.37345 36787 ft 485 kts 236°
2026-05-07 22:43 -33.90684 -57.40141 35998 ft 482 kts 236°
2026-05-07 22:43 -33.93084 -57.42931 35425 ft 478 kts 236°
2026-05-07 22:43 -33.95465 -57.45709 34804 ft 479 kts 236°
2026-05-07 22:44 -33.97858 -57.48514 34085 ft 482 kts 236°
2026-05-07 22:44 -34.00243 -57.51317 33314 ft 487 kts 235°
2026-05-07 22:44 -34.02686 -57.54191 32481 ft 492 kts 236°
2026-05-07 22:44 -34.05145 -57.57084 31623 ft 498 kts 235°
2026-05-07 22:45 -34.07631 -57.60000 30944 ft 497 kts 234°
2026-05-07 22:45 -34.10105 -57.62897 30306 ft 496 kts 234°
2026-05-07 22:45 -34.12555 -57.65766 29650 ft 494 kts 234°
2026-05-07 22:45 -34.15025 -57.68648 28959 ft 492 kts 234°
2026-05-07 22:46 -34.17469 -57.71509 28273 ft 489 kts 235°
2026-05-07 22:46 -34.19876 -57.74335 27596 ft 486 kts 234°
2026-05-07 22:46 -34.22283 -57.77168 26932 ft 483 kts 235°
2026-05-07 22:46 -34.24672 -57.79984 26261 ft 480 kts 235°
2026-05-07 22:47 -34.27057 -57.82798 25591 ft 476 kts 234°
2026-05-07 22:47 -34.29419 -57.85586 24923 ft 473 kts 234°
2026-05-07 22:47 -34.31726 -57.88301 24278 ft 461 kts 235°
2026-05-07 22:47 -34.34000 -57.90970 23644 ft 450 kts 235°
2026-05-07 22:48 -34.36216 -57.93573 23011 ft 439 kts 236°
2026-05-07 22:48 -34.38361 -57.96098 22470 ft 426 kts 236°
2026-05-07 22:48 -34.40485 -57.98539 22003 ft 416 kts 233°
2026-05-07 22:48 -34.42631 -58.00811 21670 ft 403 kts 231°
2026-05-07 22:49 -34.44752 -58.02936 21439 ft 387 kts 230°
2026-05-07 22:49 -34.46789 -58.04933 21214 ft 370 kts 230°
2026-05-07 22:49 -34.48768 -58.06866 20882 ft 359 kts 230°
2026-05-07 22:49 -34.50669 -58.08729 20468 ft 352 kts 231°
2026-05-07 22:50 -34.52548 -58.10590 20077 ft 342 kts 231°
2026-05-07 22:50 -34.54359 -58.12393 19599 ft 337 kts 231°
2026-05-07 22:50 -34.56136 -58.14159 19396 ft 322 kts 231°
2026-05-07 22:50 -34.57842 -58.15849 19188 ft 309 kts 231°
2026-05-07 22:51 -34.59572 -58.17355 18953 ft 310 kts 217°
2026-05-07 22:51 -34.61676 -58.18141 18476 ft 329 kts 192°
2026-05-07 22:51 -34.63998 -58.17898 17974 ft 344 kts 167°
2026-05-07 22:51 -34.66143 -58.16565 17510 ft 347 kts 141°
2026-05-07 22:52 -34.67706 -58.14402 16979 ft 346 kts 116°
2026-05-07 22:52 -34.68521 -58.11668 16316 ft 346 kts 93°
2026-05-07 22:52 -34.68445 -58.08845 15664 ft 335 kts 70°
2026-05-07 22:52 -34.67512 -58.06367 15021 ft 318 kts 45°
2026-05-07 22:53 -34.65832 -58.04852 14843 ft 285 kts 13°
2026-05-07 22:53 -34.64014 -58.04702 14827 ft 250 kts 340°
2026-05-07 22:53 -34.62656 -58.05763 14792 ft 227 kts 306°
2026-05-07 22:53 -34.62228 -58.07565 14807 ft 233 kts 268°
2026-05-07 22:54 -34.62848 -58.09415 14804 ft 244 kts 242°
2026-05-07 22:54 -34.63828 -58.11110 14788 ft 246 kts 244°
2026-05-07 22:54 -34.64692 -58.12896 14590 ft 244 kts 249°
2026-05-07 22:54 -34.65379 -58.14795 14009 ft 250 kts 254°
2026-05-07 22:55 -34.65855 -58.16829 13290 ft 259 kts 262°
2026-05-07 22:55 -34.66289 -58.18977 12512 ft 271 kts 248°
2026-05-07 22:55 -34.68080 -58.21169 11505 ft 291 kts 205°
2026-05-07 22:55 -34.69410 -58.21553 11001 ft 300 kts 184°
2026-05-07 22:56 -34.71467 -58.21114 10394 ft 303 kts 162°
2026-05-07 22:56 -34.73409 -58.20197 9904 ft 299 kts 159°
2026-05-07 22:56 -34.75303 -58.19220 9408 ft 295 kts 159°
2026-05-07 22:56 -34.77169 -58.18206 8927 ft 293 kts 153°
2026-05-07 22:57 -34.78756 -58.16659 8427 ft 292 kts 133°
2026-05-07 22:57 -34.79998 -58.14748 7935 ft 290 kts 127°
2026-05-07 22:57 -34.81290 -58.12904 7449 ft 287 kts 140°
2026-05-07 22:57 -34.82738 -58.11220 6950 ft 286 kts 133°
2026-05-07 22:58 -34.83947 -58.09338 6405 ft 285 kts 127°
2026-05-07 22:58 -34.85094 -58.07371 5811 ft 286 kts 127°
2026-05-07 22:58 -34.86231 -58.05381 5209 ft 287 kts 127°
2026-05-07 22:58 -34.87347 -58.03396 4710 ft 283 kts 127°
2026-05-07 22:59 -34.88421 -58.01451 4604 ft 269 kts 127°
2026-05-07 22:59 -34.89448 -57.99579 4608 ft 266 kts 127°
2026-05-07 22:59 -34.90471 -57.97703 4607 ft 266 kts 127°
2026-05-07 22:59 -34.91499 -57.95827 4609 ft 264 kts 127°
2026-05-07 23:00 -34.92531 -57.93947 4612 ft 263 kts 127°
2026-05-07 23:00 -34.93544 -57.92099 4603 ft 266 kts 126°
2026-05-07 23:00 -34.94425 -57.90091 4293 ft 273 kts 109°
2026-05-07 23:00 -34.94463 -57.87789 3848 ft 279 kts 74°
2026-05-07 23:01 -34.93457 -57.85815 3471 ft 276 kts 38°
2026-05-07 23:01 -34.91772 -57.84826 3101 ft 266 kts
2026-05-07 23:01 -34.89967 -57.84714 2964 ft 250 kts 350°
2026-05-07 23:01 -34.88264 -57.85025 2985 ft 243 kts 340°
2026-05-07 23:02 -34.86757 -57.85716 2989 ft 225 kts 324°
2026-05-07 23:02 -34.85515 -57.86845 2996 ft 221 kts 310°
2026-05-07 23:02 -34.84547 -57.88267 2991 ft 214 kts 298°
2026-05-07 23:02 -34.83791 -57.89809 2995 ft 216 kts 296°
2026-05-07 23:03 -34.82996 -57.91388 2994 ft 215 kts 298°
2026-05-07 23:03 -34.82186 -57.92923 2996 ft 217 kts 297°
2026-05-07 23:03 -34.81377 -57.94457 2994 ft 216 kts 297°
2026-05-07 23:03 -34.80566 -57.96010 2993 ft 219 kts 297°
2026-05-07 23:04 -34.79747 -57.97579 2996 ft 218 kts 297°
2026-05-07 23:04 -34.78941 -57.99118 2998 ft 217 kts 297°
2026-05-07 23:04 -34.78128 -58.00679 2997 ft 215 kts 297°
2026-05-07 23:04 -34.77331 -58.02200 2997 ft 215 kts 297°
2026-05-07 23:05 -34.76533 -58.03737 2992 ft 215 kts 296°
2026-05-07 23:05 -34.75875 -58.05347 2984 ft 215 kts 289°
2026-05-07 23:05 -34.75040 -58.06855 2976 ft 218 kts 310°
2026-05-07 23:05 -34.73992 -58.08181 3050 ft 216 kts 302°
2026-05-07 23:06 -34.73176 -58.09702 3454 ft 216 kts 293°
2026-05-07 23:06 -34.72504 -58.11364 3501 ft 221 kts 290°
2026-05-07 23:06 -34.71888 -58.13040 3356 ft 215 kts 289°
2026-05-07 23:06 -34.71243 -58.14675 3158 ft 216 kts 292°
2026-05-07 23:07 -34.70486 -58.16248 3069 ft 212 kts 296°
2026-05-07 23:07 -34.69691 -58.17796 3094 ft 219 kts 297°
2026-05-07 23:07 -34.68868 -58.19350 3075 ft 218 kts 295°
2026-05-07 23:07 -34.68081 -58.20914 2849 ft 223 kts 296°
2026-05-07 23:08 -34.67248 -58.22509 2544 ft 221 kts 298°
2026-05-07 23:08 -34.66336 -58.23979 2742 ft 221 kts 306°
2026-05-07 23:08 -34.65273 -58.25263 3109 ft 206 kts 309°
2026-05-07 23:08 -34.64283 -58.26471 3190 ft 200 kts 305°
2026-05-07 23:09 -34.63418 -58.27742 3140 ft 190 kts 301°
2026-05-07 23:09 -34.62644 -58.29010 2939 ft 183 kts 297°
2026-05-07 23:09 -34.61998 -58.30309 2500 ft 183 kts 292°
2026-05-07 23:09 -34.61401 -58.31656 1979 ft 181 kts 293°
2026-05-07 23:10 -34.60802 -58.32977 1511 ft 176 kts 296°
2026-05-07 23:10 -34.60155 -58.34179 1235 ft 161 kts 300°
2026-05-07 23:10 -34.59528 -58.35204 1050 ft 146 kts 301°
2026-05-07 23:10 -34.58939 -58.36145 850 ft 134 kts 300°
2026-05-07 23:11 -34.58441 -58.37096 714 ft 131 kts 297°
2026-05-07 23:11 -34.57947 -58.38002 559 ft 129 kts 299°
2026-05-07 23:11 -34.57419 -58.38886 379 ft 125 kts 300°
2026-05-07 23:11 -34.56954 -58.39737 227 ft 116 kts 300°
2026-05-07 23:12 -34.56503 -58.40528 87 ft 111 kts 299°
2026-05-07 23:12 -34.56110 -58.41267 33 ft 90 kts 307°
2026-05-07 23:12 -34.55859 -58.41694 27 ft 35 kts 303°
2026-05-07 23:12 -34.55745 -58.41896 24 ft 13 kts 312°
2026-05-07 23:13 -34.55676 -58.41888 24 ft 7 kts 62°
2026-05-07 23:13 -34.55674 -58.41872 24 ft 0 kts 97°
2026-05-07 23:13 -34.55675 -58.41870 24 ft 1 kts 103°
2026-05-07 23:13 -34.55683 -58.41845 24 ft 0 kts 116°
2026-05-07 23:14 -34.55684 -58.41843 24 ft 0 kts 118°
2026-05-07 23:14 -34.55693 -58.41824 25 ft 6 kts 122°
2026-05-07 23:14 -34.55719 -58.41777 25 ft 6 kts 122°
2026-05-07 23:14 -34.55724 -58.41765 26 ft 0 kts 121°
2026-05-07 23:15 -34.55725 -58.41765 26 ft 0 kts 121°
2026-05-07 23:15 -34.55729 -58.41756 26 ft 2 kts 121°
2026-05-07 23:15 -34.55738 -58.41738 26 ft 2 kts 121°
2026-05-07 23:16 -34.55748 -58.41715 26 ft 3 kts 117°
2026-05-07 23:16 -34.55759 -58.41689 26 ft 3 kts 116°
2026-05-07 23:16 -34.55776 -58.41647 27 ft 7 kts 115°
2026-05-07 23:16 -34.55798 -58.41592 27 ft 0 kts 116°
2026-05-07 23:17 -34.55807 -58.41570 27 ft 9 kts 116°
2026-05-07 23:17 -34.55838 -58.41497 28 ft 8 kts 117°
2026-05-07 23:17 -34.55864 -58.41436 28 ft 8 kts 117°
2026-05-07 23:17 -34.55895 -58.41365 29 ft 8 kts 116°
2026-05-07 23:18 -34.55890 -58.41304 29 ft 6 kts 48°
2026-05-07 23:18 -34.55860 -58.41262 28 ft 8 kts 72°
2026-05-07 23:18 -34.55878 -58.41202 29 ft 6 kts 127°
2026-05-07 23:18 -34.55909 -58.41157 29 ft 8 kts 130°
2026-05-07 23:19 -34.55951 -58.41100 29 ft 9 kts 134°
2026-05-07 23:19 -34.55995 -58.41057 29 ft 7 kts 154°
2026-05-07 23:19 -34.56034 -58.41045 29 ft 4 kts 171°
2026-05-07 23:19 -34.56074 -58.41032 30 ft 7 kts 148°
2026-05-07 23:20 -34.56107 -58.40986 30 ft 6 kts 121°
2026-05-07 23:20 -34.56113 -58.40941 29 ft 4 kts 76°
2026-05-07 23:20 -34.56091 -58.40914 28 ft 3 kts 34°
2026-05-07 23:20 -34.56090 -58.40913 28 ft 0 kts 34°